Location: *
(32.8559°S, 174.3346°E)
Time: 11:55:38
(UTC+00:00)

Daily predictions for brighter satellites

Satellite Brightness Start Highest point End
(mag) Time Altitude Azimuth Time Altitude Azimuth Time Altitude Azimuth
Cosmos 2297 Rocket 4.1 16:23:26 23° NE 16:23:26 23° NE 16:25:26 10° NNE
Hubble Space Telescope 4.0 16:29:47 11° ENE 16:29:47 11° ENE 16:29:58 10° ENE
SJ 16-02 3.9 16:30:58 19° E 16:30:58 19° E 16:33:21 10° ENE
ATLAS 5 CENTAUR R/B 4.5 16:57:20 10° NNE 17:03:25 30° ENE 17:09:22 10° SE
Cosmos 2227 Rocket 2.9 17:06:34 42° N 17:06:34 42° N 17:10:20 10° N
NOSS 3-1 (C) 3.9 17:06:25 37° S 17:08:16 50° SE 17:13:26 10° NE
Cosmos 2082 3.8 17:08:04 56° S 17:09:15 75° ESE 17:14:57 10° NNE
Cosmos 1758 4.2 17:11:12 48° E 17:11:12 48° E 17:14:59 10° NNE
Okean O Rocket 3.2 17:07:19 10° NE 17:11:20 34° ESE 17:14:45 14° SSE
Atlas Centaur 2 3.1 17:09:41 52° WNW 17:12:01 76° N 17:20:00 10° E
Cosmos 1980 Rocket 2.5 17:14:37 49° S 17:14:37 49° S 17:18:51 10° SSE
Cosmos 2195 Rocket 4.5 17:07:23 10° N 17:13:43 86° E 17:20:10 10° S
USA 267 3.2 17:07:20 10° SE 17:13:51 62° SW 17:14:36 58° WSW
Cosmos 1470 4.0 17:20:53 33° NNE 17:20:53 33° NNE 17:23:06 10° N
PAYLOAD B 4.2 17:18:10 10° NNE 17:23:41 83° ESE 17:27:35 21° S
USA 229 DEB 3.9 17:23:20 25° SSW 17:27:26 65° ESE 17:33:49 10° NE
USA 229 3.9 17:23:25 24° SSW 17:27:34 64° ESE 17:33:55 10° NE
Cosmos 1898 Rocket 3.8 17:26:06 23° S 17:29:26 69° ESE 17:34:45 10° NNE
OAO 1 Rocket 4.5 17:30:32 57° SW 17:31:30 71° S 17:36:53 10° E
Cosmos 1455 Rocket 4.4 17:34:52 26° NNW 17:34:52 26° NNW 17:36:54 10° NNW
Cosmos 2026 Rocket 3.8 17:26:48 10° N 17:32:53 78° W 17:39:10 10° S
Meteosat 1 Rocket2 3.4 17:35:51 39° N 17:36:00 39° N 17:39:47 10° ENE
Cosmos 1570 Rocket 3.9 17:30:57 10° NNW 17:36:17 79° WSW 17:41:43 10° SSE
Cosmos 540 Rocket 3.4 17:31:17 10° NNW 17:36:29 89° WSW 17:41:44 10° SSE
SL-16 R/B 3.1 17:32:38 10° N 17:38:05 50° ENE 17:43:35 10° SSE
SMAP 3.9 17:34:33 10° NNE 17:39:04 50° ESE 17:43:38 10° S
NOSS 3-1 (A) 3.9 17:34:58 17° SSW 17:39:22 52° SE 17:44:32 10° NE
Aureole 3 Rocket 4.0 17:37:00 10° S 17:40:55 52° E 17:46:12 10° NNE
Cosmos 841 Rocket 3.4 17:37:17 10° NNW 17:42:32 74° WSW 17:47:52 10° SSE
Cosmos 1092 Rocket 4.2 17:40:12 10° NNW 17:46:03 42° W 17:51:55 10° S
Cosmos 1689 Rocket 2.6 17:43:49 10° SSE 17:46:51 61° E 17:49:51 10° N
CZ-4B R/B 3.2 17:41:39 10° NNE 17:47:11 86° WNW 17:52:54 10° SSW
Orbus 7S? 3.5 17:49:36 41° S 17:49:36 41° S 17:52:45 10° SSE
YAOGAN 6 3.2 17:49:37 10° NNE 17:53:09 56° ESE 17:56:41 10° S
Cosmos 1953 2.3 17:50:07 11° S 17:53:59 83° E 17:57:59 10° N
Timation 1 Rocket 4.5 17:52:03 10° SSW 17:58:08 79° ESE 18:04:08 10° NNE
Radarsat Rocket 4.4 17:52:13 10° N 17:59:49 69° WNW 18:06:34 10° SSW
Cosmos 1937 Rocket 3.4 17:55:50 12° SSW 18:00:45 84° WNW 18:05:57 10° NNE
Cosmos 2297 Rocket 4.1 18:05:18 12° WNW 18:05:18 12° WNW 18:06:12 10° NW
ASTEX 1 4.1 17:59:14 10° NNE 18:04:00 55° E 18:08:50 10° S
Cosmos 1818 3.7 17:59:16 10° NNW 18:04:39 76° ENE 18:10:04 10° SSE
AQUARIUS 4.1 18:02:18 10° NNE 18:06:49 87° W 18:11:24 10° SSW
BREEZE-M DEB (TANK) 4.1 17:56:47 15° SW 18:06:57 80° SE 18:10:43 10° NE
Hubble Space Telescope 2.1 18:05:08 15° NW 18:08:10 35° N 18:12:00 10° ENE
SJ 16-02 2.3 18:08:00 26° W 18:08:34 27° W 18:12:18 10° NNW
DELTA 2 R/B (1) 3.6 18:05:41 21° WNW 18:09:34 74° SSW 18:15:13 10° ESE
Cosmos 1655 Rocket 4.1 18:03:24 10° N 18:09:39 85° E 18:15:58 10° S
COSMO-SKYMED 1 3.3 18:08:08 10° SSE 18:12:29 56° E 18:16:45 10° N
OAO 2 Rocket 3.4 18:10:53 24° WSW 18:14:02 70° S 18:19:04 10° E
ADEOS Rocket 2.7 18:09:22 10° SSE 18:14:57 85° WSW 18:20:45 10° NNW
Cosmos 2266 Rocket 4.3 18:10:18 10° N 18:16:36 71° E 18:22:51 10° S
Cosmos 2322 Rocket 2.2 18:12:22 10° NNW 18:18:05 86° WSW 18:23:52 10° SSE
Meteor 2-5 Rocket 4.0 18:12:53 10° N 18:18:28 74° E 18:24:03 10° SSE
Cosmos 1340 Rocket 4.0 18:18:19 22° WSW 18:19:16 24° W 18:22:33 10° NW
H-2A R/B 3.9 18:16:07 10° NNW 18:19:21 24° W 18:20:42 20° WSW
Cosmos 2227 4.3 18:14:16 10° SSW 18:19:58 79° ESE 18:25:37 10° NNE
Cosmos 1726 2.7 18:18:23 14° SSW 18:21:10 35° W 18:24:37 10° NNW
Cosmos 1674 2.9 18:17:34 10° NNW 18:21:10 46° W 18:24:50 10° S
OAO 3 Rocket 3.5 18:18:32 20° W 18:21:51 59° NNW 18:26:35 10° ENE
Meteor 1-16 Rocket 4.2 18:17:25 10° SSW 18:23:10 67° W 18:28:40 10° N
Helios 1A Rocket 3.0 18:22:04 10° NNE 18:26:07 84° ESE 18:30:17 10° S
Delta 2 Rocket 3.7 18:23:03 18° WSW 18:26:32 89° SSE 18:31:49 10° ENE
Aureole 3 3.3 18:27:09 10° S 18:31:23 79° E 18:34:46 10° N
Envisat 3.5 18:28:07 10° NNW 18:32:52 39° W 18:37:40 10° SSW
Meteor 2-8 Rocket 4.4 18:28:08 10° SSW 18:34:15 66° W 18:40:18 10° N
NOAA 12 4.3 18:30:51 10° N 18:35:56 51° W 18:41:06 10° SSW
Cosmos 1437 3.8 18:35:40 10° NW 18:38:05 22° WSW 18:40:33 10° SSW
Cosmos 2263 Rocket 2.2 18:33:35 10° SSW 18:39:20 81° WNW 18:45:00 10° NNE
Cosmos 1606 Rocket 3.5 18:35:23 10° S 18:39:47 90° W 18:44:07 10° N
Cosmos 1553 Rocket 4.3 18:36:17 10° SSW 18:42:26 48° W 18:48:26 10° NNW
NOSS 2-3 (E) 4.5 18:36:39 10° SW 18:42:26 45° WNW 18:47:01 10° N
Cosmos 1461 2.9 18:39:42 10° SW 18:43:28 50° WNW 18:47:13 10° N
Cosmos 2298 Rocket 4.2 18:38:07 10° SSW 18:43:29 79° ESE 18:48:47 10° NNE
NOAA 11 4.3 18:40:39 10° NNE 18:46:10 89° ESE 18:51:46 10° SSW
Okean O Rocket 3.2 18:44:45 10° NW 18:47:42 17° W 18:50:42 10° SW
ATLAS 5 CENTAUR R/B 2.9 18:41:02 10° NW 18:48:01 50° SW 18:54:39 10° SSE
Cosmos 2237 4.2 18:42:58 10° NNW 18:48:40 86° WSW 18:54:25 10° SSE
Cosmos 2360 Rocket 2.3 18:43:29 10° NNW 18:49:08 89° ENE 18:54:50 10° SSE
H-2A R/B 4.4 18:47:58 10° ENE 18:51:33 20° ESE 18:55:11 10° SSE
S3M 4.2 18:49:47 10° SSW 18:55:45 52° W 19:01:40 10° NNW
Cosmos 2285 Rocket 4.1 18:52:06 10° SSW 18:58:31 64° WNW 19:04:50 10° N
SKYMED 2 4.1 18:56:22 10° S 19:00:25 37° WSW 19:04:26 10° NW
Atlas Centaur 2 3.4 18:53:30 10° W 19:01:44 58° NNW 19:08:49 10° ENE
